owner,sensor,date,latitude,longitude,vertical_datum,wind_speed,wind_to_direction,wind_speed_of_gust,qcFlag 
DISL,ioos:station:DISL:MHPA:1,2016-12-01T00:00:00Z,30.6671,-87.9365,8.5,1.98,315.9,-9999.0,'1111122,1111122,1111122' 
DISL,ioos:station:DISL:MHPA:1,2016-12-01T00:30:00Z,30.6671,-87.9365,8.5,1.59,320.7,-9999.0,'1111122,1111122,1111122' 
DISL,ioos:station:DISL:MHPA:1,2016-12-01T01:00:00Z,30.6671,-87.9365,8.5,3.47,317.2,-9999.0,'1111122,1111122,1111122' 
DISL,ioos:station:DISL:MHPA:1,2016-12-01T01:30:00Z,30.6671,-87.9365,8.5,3.26,324.7,-9999.0,'1111122,1111122,1111122' 
DISL,ioos:station:DISL:MHPA:1,2016-12-01T02:00:00Z,30.6671,-87.9365,8.5,2.68,326.4,-9999.0,'1111122,1111122,1111122' 
DISL,ioos:station:DISL:MHPA:1,2016-12-01T02:30:00Z,30.6671,-87.9365,8.5,2.17,329.3,-9999.0,'1111122,1111122,1111122' 
DISL,ioos:station:DISL:MHPA:1,2016-12-01T03:00:00Z,30.6671,-87.9365,8.5,1.9,340.5,-9999.0,'1111122,1111122,1111122' 
DISL,ioos:station:DISL:MHPA:1,2016-12-01T03:30:00Z,30.6671,-87.9365,8.5,1.72,337.2,-9999.0,'1111122,1111122,1111122' 
DISL,ioos:station:DISL:MHPA:1,2016-12-01T04:00:00Z,30.6671,-87.9365,8.5,1.84,323.9,-9999.0,'1111122,1111122,1111122' 
DISL,ioos:station:DISL:MHPA:1,2016-12-01T04:30:00Z,30.6671,-87.9365,8.5,1.94,318.2,-9999.0,'1111122,1111122,1111122' 
DISL,ioos:station:DISL:MHPA:1,2016-12-01T05:00:00Z,30.6671,-87.9365,8.5,2.34,310.4,-9999.0,'1111122,1111122,1111122' 
DISL,ioos:station:DISL:MHPA:1,2016-12-01T05:30:00Z,30.6671,-87.9365,8.5,3.93,306.6,-9999.0,'1111122,1111122,1111122' 
DISL,ioos:station:DISL:MHPA:1,2016-12-01T06:00:00Z,30.6671,-87.9365,8.5,3.31,314.2,-9999.0,'1111122,1111122,1111122' 
DISL,ioos:station:DISL:MHPA:1,2016-12-01T06:30:00Z,30.6671,-87.9365,8.5,2.53,343.3,-9999.0,'1111122,1111122,1111122' 
DISL,ioos:station:DISL:MHPA:1,2016-12-01T07:30:00Z,30.6671,-87.9365,8.5,2.75,345.8,-9999.0,'1111122,1111122,1111122' 
DISL,ioos:station:DISL:MHPA:1,2016-12-01T08:00:00Z,30.6671,-87.9365,8.5,2.91,338.4,-9999.0,'1111122,1111122,1111122' 
DISL,ioos:station:DISL:MHPA:1,2016-12-01T08:30:00Z,30.6671,-87.9365,8.5,2.61,337.4,-9999.0,'1111122,1111122,1111122' 
DISL,ioos:station:DISL:MHPA:1,2016-12-01T09:00:00Z,30.6671,-87.9365,8.5,2.7,337.4,-9999.0,'1111122,1111122,1111122' 
DISL,ioos:station:DISL:MHPA:1,2016-12-01T09:30:00Z,30.6671,-87.9365,8.5,2.42,349.6,-9999.0,'1111122,1111122,1111122' 
DISL,ioos:station:DISL:MHPA:1,2016-12-01T10:00:00Z,30.6671,-87.9365,8.5,1.97,354.9,-9999.0,'1111122,1111122,1111122' 
DISL,ioos:station:DISL:MHPA:1,2016-12-01T10:30:00Z,30.6671,-87.9365,8.5,1.51,345.9,-9999.0,'1111122,1111122,1111122' 
DISL,ioos:station:DISL:MHPA:1,2016-12-01T11:00:00Z,30.6671,-87.9365,8.5,1.78,5.018,-9999.0,'1111122,1111122,1111122' 
DISL,ioos:station:DISL:MHPA:1,2016-12-01T11:30:00Z,30.6671,-87.9365,8.5,1.65,2.268,-9999.0,'1111122,1111122,1111122' 
DISL,ioos:station:DISL:MHPA:1,2016-12-01T12:00:00Z,30.6671,-87.9365,8.5,1.7,2.063,-9999.0,'1111122,1111122,1111122' 
DISL,ioos:station:DISL:MHPA:1,2016-12-01T12:30:00Z,30.6671,-87.9365,8.5,2.52,358.8,-9999.0,'1111122,1111122,1111122' 
DISL,ioos:station:DISL:MHPA:1,2016-12-01T13:00:00Z,30.6671,-87.9365,8.5,2.29,353.8,-9999.0,'1111122,1111122,1111122' 
DISL,ioos:station:DISL:MHPA:1,2016-12-01T13:30:00Z,30.6671,-87.9365,8.5,2.55,358.4,-9999.0,'1111122,1111122,1111122' 
DISL,ioos:station:DISL:MHPA:1,2016-12-01T14:00:00Z,30.6671,-87.9365,8.5,2.8,8.53,-9999.0,'1111122,1111122,1111122' 
DISL,ioos:station:DISL:MHPA:1,2016-12-01T14:30:00Z,30.6671,-87.9365,8.5,3.28,352.6,-9999.0,'1111122,1111122,1111122' 
DISL,ioos:station:DISL:MHPA:1,2016-12-01T15:00:00Z,30.6671,-87.9365,8.5,2.79,13.22,-9999.0,'1111122,1111122,1111122' 
DISL,ioos:station:DISL:MHPA:1,2016-12-01T15:30:00Z,30.6671,-87.9365,8.5,2.81,354.9,-9999.0,'1111122,1111122,1111122' 
DISL,ioos:station:DISL:MHPA:1,2016-12-01T16:00:00Z,30.6671,-87.9365,8.5,2.92,0.774,-9999.0,'1111122,1111122,1111122' 
DISL,ioos:station:DISL:MHPA:1,2016-12-01T16:30:00Z,30.6671,-87.9365,8.5,2.95,12.71,-9999.0,'1111122,1111122,1111122' 
DISL,ioos:station:DISL:MHPA:1,2016-12-01T17:00:00Z,30.6671,-87.9365,8.5,3.49,358.3,-9999.0,'1111122,1111122,1111122' 
DISL,ioos:station:DISL:MHPA:1,2016-12-01T17:30:00Z,30.6671,-87.9365,8.5,3.82,339.5,-9999.0,'1111122,1111122,1111122' 
DISL,ioos:station:DISL:MHPA:1,2016-12-01T18:00:00Z,30.6671,-87.9365,8.5,4.7,328.2,-9999.0,'1111122,1111122,1111122' 
DISL,ioos:station:DISL:MHPA:1,2016-12-01T18:30:00Z,30.6671,-87.9365,8.5,3.66,334.7,-9999.0,'1111122,1111122,1111122' 
DISL,ioos:station:DISL:MHPA:1,2016-12-01T19:00:00Z,30.6671,-87.9365,8.5,3.83,335.6,-9999.0,'1111122,1111122,1111122' 
DISL,ioos:station:DISL:MHPA:1,2016-12-01T19:30:00Z,30.6671,-87.9365,8.5,3.74,339.4,-9999.0,'1111122,1111122,1111122' 
DISL,ioos:station:DISL:MHPA:1,2016-12-01T20:00:00Z,30.6671,-87.9365,8.5,2.44,345.2,-9999.0,'1111122,1111122,1111122' 
DISL,ioos:station:DISL:MHPA:1,2016-12-01T20:30:00Z,30.6671,-87.9365,8.5,2.89,339.2,-9999.0,'1111122,1111122,1111122' 
DISL,ioos:station:DISL:MHPA:1,2016-12-01T21:00:00Z,30.6671,-87.9365,8.5,2.78,360.0,-9999.0,'1111122,1111122,1111122' 
DISL,ioos:station:DISL:MHPA:1,2016-12-01T21:30:00Z,30.6671,-87.9365,8.5,2.27,329.6,-9999.0,'1111122,1111122,1111122' 
DISL,ioos:station:DISL:MHPA:1,2016-12-01T22:00:00Z,30.6671,-87.9365,8.5,3.2,333.5,-9999.0,'1111122,1111122,1111122' 
DISL,ioos:station:DISL:MHPA:1,2016-12-01T22:30:00Z,30.6671,-87.9365,8.5,2.15,353.0,-9999.0,'1111122,1111122,1111122' 
DISL,ioos:station:DISL:MHPA:1,2016-12-01T23:00:00Z,30.6671,-87.9365,8.5,1.46,337.0,-9999.0,'1111122,1111122,1111122' 
DISL,ioos:station:DISL:MHPA:1,2016-12-01T23:30:00Z,30.6671,-87.9365,8.5,1.08,357.6,-9999.0,'1111122,1111122,1111122' 
DISL,ioos:station:DISL:MHPA:1,2016-12-02T00:00:00Z,30.6671,-87.9365,8.5,1.3,20.26,-9999.0,'1111122,1111122,1111122' 
DISL,ioos:station:DISL:MHPA:1,2016-12-02T00:30:00Z,30.6671,-87.9365,8.5,1.19,6.607,-9999.0,'1111122,1111122,1111122' 
DISL,ioos:station:DISL:MHPA:1,2016-12-02T01:00:00Z,30.6671,-87.9365,8.5,0.78,13.3,-9999.0,'1111122,1111122,1111122' 
DISL,ioos:station:DISL:MHPA:1,2016-12-02T02:00:00Z,30.6671,-87.9365,8.5,1.31,15.38,-9999.0,'1111122,1111122,1111122' 
DISL,ioos:station:DISL:MHPA:1,2016-12-02T02:30:00Z,30.6671,-87.9365,8.5,1.38,34.75,-9999.0,'1111122,1111122,1111122' 
DISL,ioos:station:DISL:MHPA:1,2016-12-02T03:00:00Z,30.6671,-87.9365,8.5,1.12,5.428,-9999.0,'1111122,1111122,1111122' 
DISL,ioos:station:DISL:MHPA:1,2016-12-02T03:30:00Z,30.6671,-87.9365,8.5,1.44,21.53,-9999.0,'1111122,1111122,1111122' 
DISL,ioos:station:DISL:MHPA:1,2016-12-02T04:00:00Z,30.6671,-87.9365,8.5,1.17,8.97,-9999.0,'1111122,1111122,1111122' 
DISL,ioos:station:DISL:MHPA:1,2016-12-02T04:30:00Z,30.6671,-87.9365,8.5,1.21,11.79,-9999.0,'1111122,1111122,1111122' 
DISL,ioos:station:DISL:MHPA:1,2016-12-02T05:00:00Z,30.6671,-87.9365,8.5,1.06,356.4,-9999.0,'1111122,1111122,1111122' 
DISL,ioos:station:DISL:MHPA:1,2016-12-02T05:30:00Z,30.6671,-87.9365,8.5,1.09,17.69,-9999.0,'1111122,1111122,1111122' 
DISL,ioos:station:DISL:MHPA:1,2016-12-02T06:00:00Z,30.6671,-87.9365,8.5,1.15,12.91,-9999.0,'1111122,1111122,1111122' 
DISL,ioos:station:DISL:MHPA:1,2016-12-02T06:30:00Z,30.6671,-87.9365,8.5,1.41,7.874,-9999.0,'1111122,1111122,1111122' 
DISL,ioos:station:DISL:MHPA:1,2016-12-02T07:00:00Z,30.6671,-87.9365,8.5,1.0,12.22,-9999.0,'1111122,1111122,1111122' 
DISL,ioos:station:DISL:MHPA:1,2016-12-02T07:30:00Z,30.6671,-87.9365,8.5,1.32,354.1,-9999.0,'1111122,1111122,1111122' 
DISL,ioos:station:DISL:MHPA:1,2016-12-02T08:00:00Z,30.6671,-87.9365,8.5,1.43,4.833,-9999.0,'1111122,1111122,1111122' 
DISL,ioos:station:DISL:MHPA:1,2016-12-02T08:30:00Z,30.6671,-87.9365,8.5,1.47,352.3,-9999.0,'1111122,1111122,1111122' 
DISL,ioos:station:DISL:MHPA:1,2016-12-02T09:00:00Z,30.6671,-87.9365,8.5,1.82,351.1,-9999.0,'1111122,1111122,1111122' 
DISL,ioos:station:DISL:MHPA:1,2016-12-02T09:30:00Z,30.6671,-87.9365,8.5,1.41,340.2,-9999.0,'1111122,1111122,1111122' 
DISL,ioos:station:DISL:MHPA:1,2016-12-02T10:00:00Z,30.6671,-87.9365,8.5,1.62,357.7,-9999.0,'1111122,1111122,1111122' 
DISL,ioos:station:DISL:MHPA:1,2016-12-02T10:30:00Z,30.6671,-87.9365,8.5,1.81,344.0,-9999.0,'1111122,1111122,1111122' 
DISL,ioos:station:DISL:MHPA:1,2016-12-02T11:00:00Z,30.6671,-87.9365,8.5,1.21,332.3,-9999.0,'1111122,1111122,1111122' 
DISL,ioos:station:DISL:MHPA:1,2016-12-02T11:30:00Z,30.6671,-87.9365,8.5,1.28,349.9,-9999.0,'1111122,1111122,1111122' 
DISL,ioos:station:DISL:MHPA:1,2016-12-02T12:00:00Z,30.6671,-87.9365,8.5,1.57,347.8,-9999.0,'1111122,1111122,1111122' 
DISL,ioos:station:DISL:MHPA:1,2016-12-02T12:30:00Z,30.6671,-87.9365,8.5,1.75,357.8,-9999.0,'1111122,1111122,1111122' 
DISL,ioos:station:DISL:MHPA:1,2016-12-02T13:00:00Z,30.6671,-87.9365,8.5,2.28,3.183,-9999.0,'1111122,1111122,1111122' 
DISL,ioos:station:DISL:MHPA:1,2016-12-02T13:30:00Z,30.6671,-87.9365,8.5,2.36,2.612,-9999.0,'1111122,1111122,1111122' 
DISL,ioos:station:DISL:MHPA:1,2016-12-02T14:00:00Z,30.6671,-87.9365,8.5,1.75,24.91,-9999.0,'1111122,1111122,1111122' 
DISL,ioos:station:DISL:MHPA:1,2016-12-02T14:30:00Z,30.6671,-87.9365,8.5,1.34,27.67,-9999.0,'1111122,1111122,1111122' 
DISL,ioos:station:DISL:MHPA:1,2016-12-02T15:00:00Z,30.6671,-87.9365,8.5,3.45,56.64,-9999.0,'1111122,1111122,1111122' 
DISL,ioos:station:DISL:MHPA:1,2016-12-02T15:30:00Z,30.6671,-87.9365,8.5,3.13,33.82,-9999.0,'1111122,1111122,1111122' 
DISL,ioos:station:DISL:MHPA:1,2016-12-02T16:00:00Z,30.6671,-87.9365,8.5,3.54,38.78,-9999.0,'1111122,1111122,1111122' 
DISL,ioos:station:DISL:MHPA:1,2016-12-02T16:30:00Z,30.6671,-87.9365,8.5,3.03,73.69,-9999.0,'1111122,1111122,1111122' 
DISL,ioos:station:DISL:MHPA:1,2016-12-02T17:00:00Z,30.6671,-87.9365,8.5,3.6,57.79,-9999.0,'1111122,1111122,1111122' 
DISL,ioos:station:DISL:MHPA:1,2016-12-02T17:30:00Z,30.6671,-87.9365,8.5,3.02,36.53,-9999.0,'1111122,1111122,1111122' 
DISL,ioos:station:DISL:MHPA:1,2016-12-02T18:00:00Z,30.6671,-87.9365,8.5,3.03,10.73,-9999.0,'1111122,1111122,1111122' 
DISL,ioos:station:DISL:MHPA:1,2016-12-02T18:30:00Z,30.6671,-87.9365,8.5,2.47,14.75,-9999.0,'1111122,1111122,1111122' 
DISL,ioos:station:DISL:MHPA:1,2016-12-02T19:00:00Z,30.6671,-87.9365,8.5,2.69,23.26,-9999.0,'1111122,1111122,1111122' 
DISL,ioos:station:DISL:MHPA:1,2016-12-02T19:30:00Z,30.6671,-87.9365,8.5,1.62,41.33,-9999.0,'1111122,1111122,1111122' 
DISL,ioos:station:DISL:MHPA:1,2016-12-02T20:00:00Z,30.6671,-87.9365,8.5,2.13,30.13,-9999.0,'1111122,1111122,1111122' 
DISL,ioos:station:DISL:MHPA:1,2016-12-02T20:30:00Z,30.6671,-87.9365,8.5,3.53,25.32,-9999.0,'1111122,1111122,1111122' 
DISL,ioos:station:DISL:MHPA:1,2016-12-02T21:00:00Z,30.6671,-87.9365,8.5,2.88,38.96,-9999.0,'1111122,1111122,1111122' 
DISL,ioos:station:DISL:MHPA:1,2016-12-02T21:30:00Z,30.6671,-87.9365,8.5,2.42,27.56,-9999.0,'1111122,1111122,1111122' 
DISL,ioos:station:DISL:MHPA:1,2016-12-02T22:00:00Z,30.6671,-87.9365,8.5,2.06,37.72,-9999.0,'1111122,1111122,1111122' 
DISL,ioos:station:DISL:MHPA:1,2016-12-02T22:30:00Z,30.6671,-87.9365,8.5,1.27,61.25,-9999.0,'1111122,1111122,1111122' 
DISL,ioos:station:DISL:MHPA:1,2016-12-02T23:00:00Z,30.6671,-87.9365,8.5,0.81,358.8,-9999.0,'1111122,1111122,1111122' 
DISL,ioos:station:DISL:MHPA:1,2016-12-02T23:30:00Z,30.6671,-87.9365,8.5,0.62,21.65,-9999.0,'1111122,1111122,1111122' 
DISL,ioos:station:DISL:MHPA:1,2016-12-03T00:00:00Z,30.6671,-87.9365,8.5,0.98,33.88,-9999.0,'1111122,1111122,1111122' 
DISL,ioos:station:DISL:MHPA:1,2016-12-03T00:30:00Z,30.6671,-87.9365,8.5,1.65,15.24,-9999.0,'1111122,1111122,1111122' 
DISL,ioos:station:DISL:MHPA:1,2016-12-03T01:00:00Z,30.6671,-87.9365,8.5,2.04,10.49,-9999.0,'1111122,1111122,1111122' 
DISL,ioos:station:DISL:MHPA:1,2016-12-03T01:30:00Z,30.6671,-87.9365,8.5,1.6,37.35,-9999.0,'1111122,1111122,1111122' 
DISL,ioos:station:DISL:MHPA:1,2016-12-03T02:00:00Z,30.6671,-87.9365,8.5,1.8,19.35,-9999.0,'1111122,1111122,1111122' 
DISL,ioos:station:DISL:MHPA:1,2016-12-03T02:30:00Z,30.6671,-87.9365,8.5,1.78,14.3,-9999.0,'1111122,1111122,1111122' 
DISL,ioos:station:DISL:MHPA:1,2016-12-03T03:00:00Z,30.6671,-87.9365,8.5,1.46,17.3,-9999.0,'1111122,1111122,1111122' 
DISL,ioos:station:DISL:MHPA:1,2016-12-03T03:30:00Z,30.6671,-87.9365,8.5,2.37,26.97,-9999.0,'1111122,1111122,1111122' 
DISL,ioos:station:DISL:MHPA:1,2016-12-03T04:00:00Z,30.6671,-87.9365,8.5,1.76,32.76,-9999.0,'1111122,1111122,1111122' 
DISL,ioos:station:DISL:MHPA:1,2016-12-03T04:30:00Z,30.6671,-87.9365,8.5,1.15,353.8,-9999.0,'1111122,1111122,1111122' 
DISL,ioos:station:DISL:MHPA:1,2016-12-03T05:00:00Z,30.6671,-87.9365,8.5,1.4,346.6,-9999.0,'1111122,1111122,1111122' 
DISL,ioos:station:DISL:MHPA:1,2016-12-03T05:30:00Z,30.6671,-87.9365,8.5,1.89,0.91,-9999.0,'1111122,1111122,1111122' 
DISL,ioos:station:DISL:MHPA:1,2016-12-03T06:00:00Z,30.6671,-87.9365,8.5,1.26,56.03,-9999.0,'1111122,1111122,1111122' 
DISL,ioos:station:DISL:MHPA:1,2016-12-03T06:30:00Z,30.6671,-87.9365,8.5,1.39,341.0,-9999.0,'1111122,1111122,1111122' 
DISL,ioos:station:DISL:MHPA:1,2016-12-03T07:00:00Z,30.6671,-87.9365,8.5,2.51,27.77,-9999.0,'1111122,1111122,1111122' 
DISL,ioos:station:DISL:MHPA:1,2016-12-03T07:30:00Z,30.6671,-87.9365,8.5,2.7,25.73,-9999.0,'1111122,1111122,1111122' 
DISL,ioos:station:DISL:MHPA:1,2016-12-03T08:00:00Z,30.6671,-87.9365,8.5,1.31,42.09,-9999.0,'1111122,1111122,1111122' 
DISL,ioos:station:DISL:MHPA:1,2016-12-03T08:30:00Z,30.6671,-87.9365,8.5,1.84,48.46,-9999.0,'1111122,1111122,1111122' 
DISL,ioos:station:DISL:MHPA:1,2016-12-03T09:00:00Z,30.6671,-87.9365,8.5,1.54,2.492,-9999.0,'1111122,1111122,1111122' 
DISL,ioos:station:DISL:MHPA:1,2016-12-03T09:30:00Z,30.6671,-87.9365,8.5,1.6,358.0,-9999.0,'1111122,1111122,1111122' 
DISL,ioos:station:DISL:MHPA:1,2016-12-03T10:00:00Z,30.6671,-87.9365,8.5,2.52,43.59,-9999.0,'1111122,1111122,1111122' 
DISL,ioos:station:DISL:MHPA:1,2016-12-03T10:30:00Z,30.6671,-87.9365,8.5,1.72,37.71,-9999.0,'1111122,1111122,1111122' 
DISL,ioos:station:DISL:MHPA:1,2016-12-03T11:00:00Z,30.6671,-87.9365,8.5,0.96,7.43,-9999.0,'1111122,1111122,1111122' 
DISL,ioos:station:DISL:MHPA:1,2016-12-03T11:30:00Z,30.6671,-87.9365,8.5,1.84,61.29,-9999.0,'1111122,1111122,1111122' 
DISL,ioos:station:DISL:MHPA:1,2016-12-03T12:00:00Z,30.6671,-87.9365,8.5,2.66,55.1,-9999.0,'1111122,1111122,1111122' 
DISL,ioos:station:DISL:MHPA:1,2016-12-03T12:30:00Z,30.6671,-87.9365,8.5,3.24,71.07,-9999.0,'1111122,1111122,1111122' 
DISL,ioos:station:DISL:MHPA:1,2016-12-03T13:00:00Z,30.6671,-87.9365,8.5,3.34,31.84,-9999.0,'1111122,1111122,1111122' 
DISL,ioos:station:DISL:MHPA:1,2016-12-03T13:30:00Z,30.6671,-87.9365,8.5,2.95,24.75,-9999.0,'1111122,1111122,1111122' 
DISL,ioos:station:DISL:MHPA:1,2016-12-03T14:00:00Z,30.6671,-87.9365,8.5,2.58,37.94,-9999.0,'1111122,1111122,1111122' 
DISL,ioos:station:DISL:MHPA:1,2016-12-03T14:30:00Z,30.6671,-87.9365,8.5,2.78,58.0,-9999.0,'1111122,1111122,1111122' 
DISL,ioos:station:DISL:MHPA:1,2016-12-03T15:00:00Z,30.6671,-87.9365,8.5,3.87,75.01,-9999.0,'1111122,1111122,1111122' 
DISL,ioos:station:DISL:MHPA:1,2016-12-03T15:30:00Z,30.6671,-87.9365,8.5,4.17,75.16,-9999.0,'1111122,1111122,1111122' 
DISL,ioos:station:DISL:MHPA:1,2016-12-03T16:00:00Z,30.6671,-87.9365,8.5,3.6,80.0,-9999.0,'1111122,1111122,1111122' 
DISL,ioos:station:DISL:MHPA:1,2016-12-03T16:30:00Z,30.6671,-87.9365,8.5,3.12,92.3,-9999.0,'1111122,1111122,1111122' 
DISL,ioos:station:DISL:MHPA:1,2016-12-03T17:00:00Z,30.6671,-87.9365,8.5,4.17,93.1,-9999.0,'1111122,1111122,1111122' 
DISL,ioos:station:DISL:MHPA:1,2016-12-03T17:30:00Z,30.6671,-87.9365,8.5,3.03,89.9,-9999.0,'1111122,1111122,1111122' 
DISL,ioos:station:DISL:MHPA:1,2016-12-03T18:00:00Z,30.6671,-87.9365,8.5,2.36,54.22,-9999.0,'1111122,1111122,1111122' 
DISL,ioos:station:DISL:MHPA:1,2016-12-03T18:30:00Z,30.6671,-87.9365,8.5,2.66,43.97,-9999.0,'1111122,1111122,1111122' 
DISL,ioos:station:DISL:MHPA:1,2016-12-03T19:00:00Z,30.6671,-87.9365,8.5,2.22,24.49,-9999.0,'1111122,1111122,1111122' 
DISL,ioos:station:DISL:MHPA:1,2016-12-03T19:30:00Z,30.6671,-87.9365,8.5,1.58,35.44,-9999.0,'1111122,1111122,1111122' 
DISL,ioos:station:DISL:MHPA:1,2016-12-03T20:00:00Z,30.6671,-87.9365,8.5,2.1,52.57,-9999.0,'1111122,1111122,1111122' 
DISL,ioos:station:DISL:MHPA:1,2016-12-03T20:30:00Z,30.6671,-87.9365,8.5,3.33,72.66,-9999.0,'1111122,1111122,1111122' 
DISL,ioos:station:DISL:MHPA:1,2016-12-03T21:00:00Z,30.6671,-87.9365,8.5,1.99,50.59,-9999.0,'1111122,1111122,1111122' 
DISL,ioos:station:DISL:MHPA:1,2016-12-03T21:30:00Z,30.6671,-87.9365,8.5,2.3,45.46,-9999.0,'1111122,1111122,1111122' 
DISL,ioos:station:DISL:MHPA:1,2016-12-03T22:00:00Z,30.6671,-87.9365,8.5,1.85,27.77,-9999.0,'1111122,1111122,1111122' 
DISL,ioos:station:DISL:MHPA:1,2016-12-03T22:30:00Z,30.6671,-87.9365,8.5,2.75,19.0,-9999.0,'1111122,1111122,1111122' 
DISL,ioos:station:DISL:MHPA:1,2016-12-03T23:00:00Z,30.6671,-87.9365,8.5,3.14,22.17,-9999.0,'1111122,1111122,1111122' 
DISL,ioos:station:DISL:MHPA:1,2016-12-03T23:30:00Z,30.6671,-87.9365,8.5,2.36,21.72,-9999.0,'1111122,1111122,1111122' 
DISL,ioos:station:DISL:MHPA:1,2016-12-04T00:00:00Z,30.6671,-87.9365,8.5,3.34,27.13,-9999.0,'1111122,1111122,1111122' 
DISL,ioos:station:DISL:MHPA:1,2016-12-04T00:30:00Z,30.6671,-87.9365,8.5,3.65,47.69,-9999.0,'1111122,1111122,1111122' 
DISL,ioos:station:DISL:MHPA:1,2016-12-04T01:00:00Z,30.6671,-87.9365,8.5,2.45,39.35,-9999.0,'1111122,1111122,1111122' 
DISL,ioos:station:DISL:MHPA:1,2016-12-04T01:30:00Z,30.6671,-87.9365,8.5,3.3,64.33,-9999.0,'1111122,1111122,1111122' 
DISL,ioos:station:DISL:MHPA:1,2016-12-04T02:00:00Z,30.6671,-87.9365,8.5,1.99,52.64,-9999.0,'1111122,1111122,1111122' 
DISL,ioos:station:DISL:MHPA:1,2016-12-04T02:30:00Z,30.6671,-87.9365,8.5,2.49,62.92,-9999.0,'1111122,1111122,1111122' 
DISL,ioos:station:DISL:MHPA:1,2016-12-04T03:00:00Z,30.6671,-87.9365,8.5,3.69,77.38,-9999.0,'1111122,1111122,1111122' 
DISL,ioos:station:DISL:MHPA:1,2016-12-04T03:30:00Z,30.6671,-87.9365,8.5,2.91,72.37,-9999.0,'1111122,1111122,1111122' 
DISL,ioos:station:DISL:MHPA:1,2016-12-04T04:00:00Z,30.6671,-87.9365,8.5,5.73,96.6,-9999.0,'1111122,1111122,1111122' 
DISL,ioos:station:DISL:MHPA:1,2016-12-04T04:30:00Z,30.6671,-87.9365,8.5,4.62,83.6,-9999.0,'1111122,1111122,1111122' 
DISL,ioos:station:DISL:MHPA:1,2016-12-04T05:00:00Z,30.6671,-87.9365,8.5,4.48,97.6,-9999.0,'1111122,1111122,1111122' 
DISL,ioos:station:DISL:MHPA:1,2016-12-04T05:30:00Z,30.6671,-87.9365,8.5,6.14,101.3,-9999.0,'1111122,1111122,1111122' 
DISL,ioos:station:DISL:MHPA:1,2016-12-04T06:00:00Z,30.6671,-87.9365,8.5,5.51,108.8,-9999.0,'1111122,1111122,1111122' 
DISL,ioos:station:DISL:MHPA:1,2016-12-04T06:30:00Z,30.6671,-87.9365,8.5,4.21,118.7,-9999.0,'1111122,1111122,1111122' 
DISL,ioos:station:DISL:MHPA:1,2016-12-04T07:00:00Z,30.6671,-87.9365,8.5,1.92,85.5,-9999.0,'1111122,1111122,1111122' 
DISL,ioos:station:DISL:MHPA:1,2016-12-04T07:30:00Z,30.6671,-87.9365,8.5,1.33,56.21,-9999.0,'1111122,1111122,1111122' 
DISL,ioos:station:DISL:MHPA:1,2016-12-04T08:00:00Z,30.6671,-87.9365,8.5,0.69,311.9,-9999.0,'1111122,1111122,1111122' 
DISL,ioos:station:DISL:MHPA:1,2016-12-04T08:30:00Z,30.6671,-87.9365,8.5,2.3,88.1,-9999.0,'1111122,1111122,1111122' 
DISL,ioos:station:DISL:MHPA:1,2016-12-04T09:00:00Z,30.6671,-87.9365,8.5,1.54,118.6,-9999.0,'1111122,1111122,1111122' 
DISL,ioos:station:DISL:MHPA:1,2016-12-04T09:30:00Z,30.6671,-87.9365,8.5,1.11,53.42,-9999.0,'1111122,1111122,1111122' 
DISL,ioos:station:DISL:MHPA:1,2016-12-04T10:00:00Z,30.6671,-87.9365,8.5,1.14,18.83,-9999.0,'1111122,1111122,1111122' 
DISL,ioos:station:DISL:MHPA:1,2016-12-04T10:30:00Z,30.6671,-87.9365,8.5,1.93,344.1,-9999.0,'1111122,1111122,1111122' 
DISL,ioos:station:DISL:MHPA:1,2016-12-04T11:00:00Z,30.6671,-87.9365,8.5,1.48,35.57,-9999.0,'1111122,1111122,1111122' 
DISL,ioos:station:DISL:MHPA:1,2016-12-04T11:30:00Z,30.6671,-87.9365,8.5,0.88,15.27,-9999.0,'1111122,1111122,1111122' 
DISL,ioos:station:DISL:MHPA:1,2016-12-04T12:00:00Z,30.6671,-87.9365,8.5,1.7,98.9,-9999.0,'1111122,1111122,1111122' 
DISL,ioos:station:DISL:MHPA:1,2016-12-04T13:00:00Z,30.6671,-87.9365,8.5,4.34,96.6,-9999.0,'1111122,1111122,1111122' 
DISL,ioos:station:DISL:MHPA:1,2016-12-04T13:30:00Z,30.6671,-87.9365,8.5,4.6,111.1,-9999.0,'1111122,1111122,1111122' 
DISL,ioos:station:DISL:MHPA:1,2016-12-04T14:00:00Z,30.6671,-87.9365,8.5,4.33,113.8,-9999.0,'1111122,1111122,1111122' 
DISL,ioos:station:DISL:MHPA:1,2016-12-04T14:30:00Z,30.6671,-87.9365,8.5,0.41,11.61,-9999.0,'1111122,1111122,1111122' 
DISL,ioos:station:DISL:MHPA:1,2016-12-04T15:00:00Z,30.6671,-87.9365,8.5,2.16,359.9,-9999.0,'1111122,1111122,1111122' 
DISL,ioos:station:DISL:MHPA:1,2016-12-04T15:30:00Z,30.6671,-87.9365,8.5,1.86,34.29,-9999.0,'1111122,1111122,1111122' 
DISL,ioos:station:DISL:MHPA:1,2016-12-04T16:00:00Z,30.6671,-87.9365,8.5,0.98,13.35,-9999.0,'1111122,1111122,1111122' 
DISL,ioos:station:DISL:MHPA:1,2016-12-04T16:30:00Z,30.6671,-87.9365,8.5,1.71,31.44,-9999.0,'1111122,1111122,1111122' 
DISL,ioos:station:DISL:MHPA:1,2016-12-04T17:00:00Z,30.6671,-87.9365,8.5,0.83,65.95,-9999.0,'1111122,1111122,1111122' 
DISL,ioos:station:DISL:MHPA:1,2016-12-04T17:30:00Z,30.6671,-87.9365,8.5,2.67,121.0,-9999.0,'1111122,1111122,1111122' 
DISL,ioos:station:DISL:MHPA:1,2016-12-04T18:00:00Z,30.6671,-87.9365,8.5,1.75,215.4,-9999.0,'1111122,1111122,1111122' 
DISL,ioos:station:DISL:MHPA:1,2016-12-04T18:30:00Z,30.6671,-87.9365,8.5,2.32,120.2,-9999.0,'1111122,1111122,1111122' 
DISL,ioos:station:DISL:MHPA:1,2016-12-04T19:00:00Z,30.6671,-87.9365,8.5,1.85,138.2,-9999.0,'1111122,1111122,1111122' 
DISL,ioos:station:DISL:MHPA:1,2016-12-04T19:30:00Z,30.6671,-87.9365,8.5,0.84,113.7,-9999.0,'1111122,1111122,1111122' 
DISL,ioos:station:DISL:MHPA:1,2016-12-04T20:00:00Z,30.6671,-87.9365,8.5,1.38,283.2,-9999.0,'1111122,1111122,1111122' 
DISL,ioos:station:DISL:MHPA:1,2016-12-04T20:30:00Z,30.6671,-87.9365,8.5,1.48,131.9,-9999.0,'1111122,1111122,1111122' 
DISL,ioos:station:DISL:MHPA:1,2016-12-04T21:00:00Z,30.6671,-87.9365,8.5,0.37,351.1,-9999.0,'1111122,1111122,1111122' 
DISL,ioos:station:DISL:MHPA:1,2016-12-04T21:30:00Z,30.6671,-87.9365,8.5,2.86,283.6,-9999.0,'1111122,1111122,1111122' 
DISL,ioos:station:DISL:MHPA:1,2016-12-04T22:00:00Z,30.6671,-87.9365,8.5,0.86,5.069,-9999.0,'1111122,1111122,1111122' 
DISL,ioos:station:DISL:MHPA:1,2016-12-04T22:30:00Z,30.6671,-87.9365,8.5,4.76,300.0,-9999.0,'1111122,1111122,1111122' 
DISL,ioos:station:DISL:MHPA:1,2016-12-04T23:00:00Z,30.6671,-87.9365,8.5,2.45,359.1,-9999.0,'1111122,1111122,1111122' 
DISL,ioos:station:DISL:MHPA:1,2016-12-04T23:30:00Z,30.6671,-87.9365,8.5,2.88,350.8,-9999.0,'1111122,1111122,1111122' 
DISL,ioos:station:DISL:MHPA:1,2016-12-05T00:00:00Z,30.6671,-87.9365,8.5,2.0,337.5,-9999.0,'1111122,1111122,1111122' 
DISL,ioos:station:DISL:MHPA:1,2016-12-05T00:30:00Z,30.6671,-87.9365,8.5,2.98,334.0,-9999.0,'1111122,1111122,1111122' 
DISL,ioos:station:DISL:MHPA:1,2016-12-05T01:00:00Z,30.6671,-87.9365,8.5,2.88,327.8,-9999.0,'1111122,1111122,1111122' 
DISL,ioos:station:DISL:MHPA:1,2016-12-05T01:30:00Z,30.6671,-87.9365,8.5,2.92,324.3,-9999.0,'1111122,1111122,1111122' 
DISL,ioos:station:DISL:MHPA:1,2016-12-05T02:00:00Z,30.6671,-87.9365,8.5,3.24,322.5,-9999.0,'1111122,1111122,1111122' 
DISL,ioos:station:DISL:MHPA:1,2016-12-05T02:30:00Z,30.6671,-87.9365,8.5,3.18,357.9,-9999.0,'1111122,1111122,1111122' 
DISL,ioos:station:DISL:MHPA:1,2016-12-05T03:00:00Z,30.6671,-87.9365,8.5,2.63,4.766,-9999.0,'1111122,1111122,1111122' 
DISL,ioos:station:DISL:MHPA:1,2016-12-05T03:30:00Z,30.6671,-87.9365,8.5,2.2,14.06,-9999.0,'1111122,1111122,1111122' 
DISL,ioos:station:DISL:MHPA:1,2016-12-05T04:00:00Z,30.6671,-87.9365,8.5,0.99,319.4,-9999.0,'1111122,1111122,1111122' 
DISL,ioos:station:DISL:MHPA:1,2016-12-05T04:30:00Z,30.6671,-87.9365,8.5,1.9,1.002,-9999.0,'1111122,1111122,1111122' 
DISL,ioos:station:DISL:MHPA:1,2016-12-05T05:00:00Z,30.6671,-87.9365,8.5,2.2,50.19,-9999.0,'1111122,1111122,1111122' 
DISL,ioos:station:DISL:MHPA:1,2016-12-05T05:30:00Z,30.6671,-87.9365,8.5,1.46,45.65,-9999.0,'1111122,1111122,1111122' 
DISL,ioos:station:DISL:MHPA:1,2016-12-05T06:00:00Z,30.6671,-87.9365,8.5,0.65,68.21,-9999.0,'1111122,1111122,1111122' 